This demonstration page uses our WeatherBlox Daily Observations layout. Learn more.

Left ArrowRight Arrow

Hourly Observations for May 11, 2020

Temp ( °F °C ) Dew Point ( °F °C ) Humidity (%) Winds ( mph kmh ) Pressure ( in mb ) Visibility ( mi km ) Precip ( " mm )
12:56 am 00:56 Cloudy 43 6.1 28 -2.2 56 56 NNE 8 13 30.40 1029 10 16 0.00 0.00
1:56 am 01:56 Cloudy 43 6.1 27 -2.8 53 53 NNE 8 13 30.40 1029 10 16 0.00 0.00
2:56 am 02:56 Cloudy 42 5.6 28 -2.2 58 58 NNE 8 13 30.39 1029 10 16 0.00 0.00
3:56 am 03:56 Cloudy 41 5 27 -2.8 57 57 NE 15 24 30.39 1029 10 16 0.00 0.00
4:56 am 04:56 Cloudy 40 4.4 26 -3.3 58 58 NE 12 19 30.39 1029 10 16 0.00 0.00
5:56 am 05:56 Cloudy 39 3.9 27 -2.8 62 62 ENE 10 17 30.41 1030 10 16 0.00 0.00
6:56 am 06:56 Cloudy 39 3.9 26 -3.3 60 60 E 10 17 30.42 1030 10 16 0.00 0.00
7:56 am 07:56 Cloudy 39 3.9 25 -3.9 57 57 E 9 15 30.42 1030 10 16 0.00 0.00
8:56 am 08:56 Cloudy 41 5 25 -3.9 53 53 E 7 11 30.42 1030 10 16 0.00 0.00
9:56 am 09:56 Cloudy 41 5 26 -3.3 55 55 ESE 7 11 30.42 1030 10 16 0.00 0.00
10:56 am 10:56 Cloudy 43 6.1 26 -3.3 51 51 E 5 7 30.41 1030 10 16 0.00 0.00
11:56 am 11:56 Cloudy 43 6.1 26 -3.3 51 51 SE 6 9 30.40 1029 10 16 0.00 0.00
12:56 pm 12:56 Cloudy 44 6.7 27 -2.8 51 51 S 6 9 30.38 1029 8 13 0.00 0.00
1:56 pm 13:56 Cloudy 44 6.7 25 -3.9 47 47 SSE 6 9 30.35 1028 10 16 0.00 0.00
2:56 pm 14:56 Cloudy 45 7.2 26 -3.3 48 48 S 7 11 30.33 1027 10 16 0.00 0.00
3:56 pm 15:56 Cloudy 44 6.7 26 -3.3 49 49 E 7 11 30.31 1026 10 16 0.00 0.00
4:56 pm 16:56 Cloudy 44 6.7 25 -3.9 47 47 ESE 7 11 30.29 1026 10 16 0.00 0.00
5:56 pm 17:56 Cloudy 44 6.7 24 -4.4 45 45 E 7 11 30.28 1026 10 16 0.00 0.00
6:56 pm 18:56 Cloudy 44 6.7 24 -4.4 45 45 SE 7 11 30.26 1025 10 16 0.00 0.00
7:56 pm 19:56 Cloudy 43 6.1 24 -4.4 47 47 ESE 8 13 30.25 1024 10 16 0.00 0.00
8:56 pm 20:56 Cloudy 43 6.1 24 -4.4 47 47 SE 6 9 30.26 1025 10 16 0.00 0.00
9:56 pm 21:56 Cloudy with Light Rain 42 5.6 31 -0.6 65 65 SW 6 9 30.27 1025 10 16 0.00 0.00
10:56 pm 22:56 Cloudy 41 5 34 1.1 76 76 SW 5 7 30.28 1025 10 16 0.00 0.00
11:56 pm 23:56 Cloudy 40 4.4 34 1.1 79 79 WSW 5 7 30.27 1025 10 16 0.00 0.00

Powered by AerisWeather